Flag Island, MN

1:33 AM CDT on March 24, 2017 (GMT -0500)
Flag Island

Weather History for KFGN - November, 2013

Change the Weather History Date:

Tuesday, November 19, 2013

  Actual Average Record
Temperature  
Mean Temperature 28 °F -  
Max Temperature 35 °F 27 °F 42 °F (2012)
Min Temperature 21 °F 18 °F -9 °F (1996)
Degree Days  
Heating Degree Days 37    
Moisture  
Dew Point 23 °F    
Average Humidity 81    
Maximum Humidity 93    
Minimum Humidity 69    
Precipitation  
Precipitation 0.05 in - - ()
Sea Level Pressure  
Sea Level Pressure 29.86 in    
Wind  
Wind Speed 15 mph (SSE)    
Max Wind Speed 28 mph    
Max Gust Speed 30 mph    
Visibility 10 miles    
Events      
Averages and records for this station are not official NWS values.
T = Trace of Precipitation, MM = Missing Value Source: NWS Daily Summary

Daily Weather History Graph

Daily Weather History Graph

Search for Another Location

Airport or City:

Trip Planner

Search our weather history database for the weather conditions in past years. The results will help you decide how hot, cold, wet, or windy it might be!

Date:

Astronomy

Nov. 19, 2013 Rise Set
Actual Time 7:36 AM CST 4:32 PM CST
Civil Twilight 7:01 AM CST 5:08 PM CST
Nautical Twilight 6:22 AM CST 5:47 PM CST
Astronomical Twilight 5:44 AM CST 6:25 PM CST
Moon 6:23 PM CST (11/19) 9:18 AM CST (11/19)
Length of Visible Light 10h 06m
Length of Day
8h 55m
Waning Gibbous, 96% of the Moon is Illuminated
Nov 19
Waning Gibbous
Nov 25
Last Quarter
Dec 2
New
Dec 9
First Quarter
Dec 17
Full

Hourly Weather History & Observations

Time (CST) Temp. Windchill Dew Point Humidity Pressure Visibility Wind Dir Wind Speed Gust Speed Precip Events Conditions
12:13 AM 21.2 °F 12.6 °F 19.4 °F 93% 30.15 in 10.0 mi SSE 6.9 mph - N/A   Overcast
12:33 AM 21.2 °F 10.1 °F 19.4 °F 93% 30.16 in 10.0 mi South 10.4 mph - N/A   Overcast
12:54 AM 21.2 °F 10.1 °F 19.4 °F 93% 30.16 in 10.0 mi South 10.4 mph - N/A   Overcast
1:13 AM 21.2 °F 10.1 °F 19.4 °F 93% 30.16 in 10.0 mi SSE 10.4 mph 16.1 mph N/A   Overcast
1:33 AM 21.2 °F 8.9 °F 19.4 °F 93% 30.15 in 10.0 mi SSE 12.7 mph - N/A   Overcast
1:54 AM 21.2 °F 7.8 °F 19.4 °F 93% 30.14 in 10.0 mi SSE 15.0 mph - N/A   Overcast
2:13 AM 21.2 °F 6.8 °F 19.4 °F 93% 30.13 in 10.0 mi SSE 17.3 mph 21.9 mph N/A   Overcast
2:33 AM 21.2 °F 7.8 °F 19.4 °F 93% 30.13 in 10.0 mi SSE 15.0 mph 21.9 mph N/A   Overcast
2:54 AM 21.2 °F 8.3 °F 19.4 °F 93% 30.13 in 10.0 mi South 13.8 mph 18.4 mph N/A   Overcast
3:13 AM 23.0 °F 9.6 °F 19.4 °F 86% 30.13 in 10.0 mi SSE 16.1 mph - N/A   Overcast
3:33 AM 23.0 °F 10.6 °F 19.4 °F 86% 30.12 in 10.0 mi SSE 13.8 mph 18.4 mph N/A   Overcast
3:54 AM 23.0 °F 10.6 °F 19.4 °F 86% 30.12 in 10.0 mi SSE 13.8 mph - N/A   Overcast
4:13 AM 23.0 °F 10.1 °F 19.4 °F 86% 30.10 in 10.0 mi SSE 15.0 mph - N/A   Overcast
4:33 AM 23.0 °F 11.1 °F 21.2 °F 93% 30.09 in 10.0 mi SSE 12.7 mph - N/A   Overcast
4:54 AM 23.0 °F 10.6 °F 19.4 °F 86% 30.08 in 10.0 mi SE 13.8 mph 19.6 mph N/A   Overcast
5:13 AM 23.0 °F 9.6 °F 19.4 °F 86% 30.08 in 10.0 mi SE 16.1 mph - N/A   Overcast
5:33 AM 23.0 °F 9.2 °F 21.2 °F 93% 30.08 in 10.0 mi SSE 17.3 mph - N/A   Overcast
5:53 AM 23.0 °F 9.6 °F 21.2 °F 93% 30.06 in 10.0 mi SSE 16.1 mph - N/A   Overcast
6:13 AM 24.8 °F 10.7 °F 21.2 °F 86% 30.06 in 10.0 mi SSE 19.6 mph - N/A   Overcast
6:33 AM 24.8 °F 10.7 °F 21.2 °F 86% 30.05 in 10.0 mi SSE 19.6 mph - N/A   Overcast
6:53 AM 24.8 °F 10.7 °F 21.2 °F 86% 30.05 in 10.0 mi SSE 19.6 mph 25.3 mph N/A   Mostly Cloudy
7:14 AM 24.8 °F 11.1 °F 21.2 °F 86% 30.04 in 10.0 mi SSE 18.4 mph - N/A   Mostly Cloudy
7:33 AM 24.8 °F 11.1 °F 21.2 °F 86% 30.03 in 10.0 mi SSE 18.4 mph - N/A   Mostly Cloudy
7:53 AM 24.8 °F 11.1 °F 21.2 °F 86% 30.02 in 10.0 mi SSE 18.4 mph - N/A   Scattered Clouds
8:14 AM 24.8 °F 11.5 °F 21.2 °F 86% 30.02 in 10.0 mi SSE 17.3 mph - N/A   Clear
8:33 AM 24.8 °F 11.9 °F 21.2 °F 86% 30.01 in 10.0 mi SSE 16.1 mph 20.7 mph N/A   Scattered Clouds
8:53 AM 24.8 °F 11.1 °F 21.2 °F 86% 29.99 in 10.0 mi SSE 18.4 mph - N/A   Clear
9:14 AM 24.8 °F 12.4 °F 21.2 °F 86% 29.99 in 10.0 mi SSE 15.0 mph 21.9 mph N/A   Scattered Clouds
9:33 AM 24.8 °F 11.9 °F 21.2 °F 86% 29.98 in 10.0 mi SSE 16.1 mph - N/A   Clear
9:53 AM 24.8 °F 11.9 °F 21.2 °F 86% 29.97 in 10.0 mi SSE 16.1 mph - N/A   Clear
10:14 AM 24.8 °F 11.9 °F 21.2 °F 86% 29.96 in 10.0 mi SSE 16.1 mph 19.6 mph N/A   Scattered Clouds
10:33 AM 26.6 °F 14.7 °F 21.2 °F 80% 29.95 in 10.0 mi SE 15.0 mph 19.6 mph N/A   Scattered Clouds
10:53 AM 26.6 °F 14.3 °F 21.2 °F 80% 29.94 in 10.0 mi SSE 16.1 mph - N/A   Clear
11:13 AM 26.6 °F 13.1 °F 21.2 °F 80% 29.92 in 10.0 mi SSE 19.6 mph - N/A   Clear
11:33 AM 26.6 °F 13.4 °F 21.2 °F 80% 29.90 in 10.0 mi SSE 18.4 mph - N/A   Clear
11:53 AM 26.6 °F 14.3 °F 21.2 °F 80% 29.88 in 10.0 mi SSE 16.1 mph - N/A   Scattered Clouds
12:13 PM 28.4 °F 15.8 °F 21.2 °F 74% 29.87 in 10.0 mi SSE 18.4 mph - N/A   Scattered Clouds
12:34 PM 28.4 °F 15.4 °F 21.2 °F 74% 29.84 in 10.0 mi SSE 19.6 mph - N/A   Clear
12:53 PM 28.4 °F 15.8 °F 21.2 °F 74% 29.82 in 10.0 mi SE 18.4 mph 24.2 mph N/A   Clear
1:13 PM 28.4 °F 14.7 °F 21.2 °F 74% 29.80 in 10.0 mi SSE 21.9 mph - N/A   Scattered Clouds
1:34 PM 30.2 °F 19.3 °F 21.2 °F 69% 29.78 in 10.0 mi SE 15.0 mph 23.0 mph N/A   Scattered Clouds
1:53 PM 30.2 °F 18.1 °F 21.2 °F 69% 29.76 in 10.0 mi SE 18.4 mph 23.0 mph N/A   Mostly Cloudy
2:13 PM 30.2 °F 20.8 °F 23.0 °F 75% 29.74 in 10.0 mi SE 11.5 mph 17.3 mph N/A   Scattered Clouds
2:33 PM 30.2 °F 19.3 °F 23.0 °F 75% 29.74 in 10.0 mi SE 15.0 mph - N/A   Scattered Clouds
2:53 PM 30.2 °F 18.9 °F 23.0 °F 75% 29.73 in 10.0 mi SSE 16.1 mph 21.9 mph N/A   Scattered Clouds
3:13 PM 30.2 °F 18.5 °F 23.0 °F 75% 29.70 in 10.0 mi SE 17.3 mph 21.9 mph N/A   Clear
3:33 PM 32.0 °F 20.1 °F 23.0 °F 69% 29.69 in 10.0 mi SSE 19.6 mph 23.0 mph N/A   Clear
3:54 PM 32.0 °F 20.5 °F 24.8 °F 75% 29.68 in 10.0 mi SSE 18.4 mph 25.3 mph N/A   Mostly Cloudy
4:13 PM 32.0 °F 20.5 °F 23.0 °F 69% 29.69 in 10.0 mi SE 18.4 mph 24.2 mph N/A   Scattered Clouds
4:33 PM 32.0 °F 20.8 °F 24.8 °F 75% 29.67 in 10.0 mi SSE 17.3 mph - N/A   Scattered Clouds
4:54 PM 32.0 °F 22.5 °F 24.8 °F 75% 29.67 in 10.0 mi SE 12.7 mph - N/A   Mostly Cloudy
5:13 PM 33.8 °F 24.3 °F 24.8 °F 70% 29.66 in 10.0 mi SE 13.8 mph - N/A   Scattered Clouds
5:33 PM 33.8 °F 23.9 °F 24.8 °F 70% 29.66 in 10.0 mi SSE 15.0 mph - N/A   Clear
5:54 PM 33.8 °F 21.9 °F 26.6 °F 75% 29.65 in 10.0 mi SSE 21.9 mph - N/A   Scattered Clouds
6:13 PM 33.8 °F 21.9 °F 26.6 °F 75% 29.64 in 10.0 mi SSE 21.9 mph - 0.01 in   Scattered Clouds
6:33 PM 33.8 °F 21.9 °F 26.6 °F 75% 29.64 in 10.0 mi SSE 21.9 mph - 0.01 in   Scattered Clouds
6:54 PM 33.8 °F 21.9 °F 26.6 °F 75% 29.64 in 10.0 mi SSE 21.9 mph - 0.01 in   Clear
7:13 PM 33.8 °F 21.6 °F 26.6 °F 75% 29.62 in 10.0 mi SSE 23.0 mph - N/A   Scattered Clouds
7:33 PM 35.6 °F 23.2 °F 26.6 °F 70% 29.61 in 10.0 mi SSE 26.5 mph - N/A   Scattered Clouds
7:53 PM 35.6 °F 24.0 °F 26.6 °F 70% 29.60 in 10.0 mi SSE 23.0 mph - N/A   Scattered Clouds
8:14 PM 35.6 °F 24.0 °F 26.6 °F 70% 29.58 in 10.0 mi SSE 23.0 mph - 0.01 in   Scattered Clouds
8:33 PM 35.6 °F 24.2 °F 28.4 °F 75% 29.59 in 10.0 mi SSE 21.9 mph 28.8 mph 0.02 in   Mostly Cloudy
8:53 PM 35.6 °F 23.0 °F 28.4 °F 75% 29.57 in 10.0 mi SSE 27.6 mph - 0.03 in   Scattered Clouds
9:14 PM 35.6 °F 23.7 °F 28.4 °F 75% 29.57 in 10.0 mi SSE 24.2 mph - N/A   Clear
9:33 PM 35.6 °F 24.2 °F 28.4 °F 75% 29.57 in 10.0 mi SSE 21.9 mph 29.9 mph 0.01 in   Clear
9:53 PM 35.6 °F 24.5 °F 28.4 °F 75% 29.56 in 10.0 mi SSE 20.7 mph - 0.01 in   Clear
10:14 PM 35.6 °F 24.8 °F 28.4 °F 75% 29.56 in 10.0 mi SSE 19.6 mph - N/A   Clear
10:33 PM 35.6 °F 25.2 °F 30.2 °F 81% 29.56 in 10.0 mi SSE 18.4 mph - N/A   Clear
10:53 PM 35.6 °F 24.8 °F 30.2 °F 81% 29.55 in 10.0 mi South 19.6 mph - N/A   Clear
11:13 PM 35.6 °F 25.2 °F 30.2 °F 81% 29.55 in 10.0 mi SSE 18.4 mph - N/A   Clear
11:33 PM 35.6 °F 26.2 °F 30.2 °F 81% 29.56 in 10.0 mi South 15.0 mph - N/A   Clear
11:53 PM 35.6 °F 29.2 °F 30.2 °F 81% 29.57 in 10.0 mi South 8.1 mph - N/A   Clear